[[{"header":{"parameterUnit":"m.s-1","parameterCategory":1,"la1":30.2991,"la2":30.254,"lo1":-89.0895,"lo2":-89.0444,"dy":0.0017,"dx":0.0017,"nx":28,"ny":28,"refTime":"2024-09-30T03:00:00:Z","depth":0,"parameterNumber":2,"parameterNumberName":"U-component_of_WINDS"},"data":[0,0,0,0,0,0,0,0,0,0,0,0,0,0,0,0,0,0,0,0,0,0,0,0,0,0,0,0,0,0,0,0,0,0,0,0,0,0,0,0,0,0,0,0,0,0,0,0,0,0,0,0,0,0,0,0,0,0,-0.9337,-0.9336,0,-0.9213,-0.9212,-0.921,-0.9111,-0.911,-0.9109,-0.9108,-0.8981,-0.8978,-0.8976,0,0,0,0,0,0,0,0,0,0,0,0,0,-0.949,-0.9487,-0.9337,-0.9336,-0.9334,-0.9213,-0.9212,-0.921,-0.9111,-0.911,-0.9109,-0.9108,-0.8982,-0.8979,-0.8976,0,0,0,0,0,0,0,0,0,0,0,0,0,-0.94,-0.9487,-0.9338,-0.927,-0.9263,-0.9214,-0.9212,-0.921,-0.9111,-0.911,-0.9108,-0.9107,-0.8983,-0.8979,-0.8975,-0.8983,0,0,-0.8964,-0.8962,0,0,0,0,0,0,0,0,-0.9406,-0.9395,-0.9282,-0.9275,-0.9267,-0.9176,-0.9219,-0.9134,-0.9112,-0.9169,-0.9108,-0.9106,-0.9047,-0.9038,-0.9018,-0.8977,-0.8971,-0.8964,-0.8961,-0.896,-0.8959,0,0,0,0,0,0,0,-0.9412,-0.94,-0.9288,-0.928,-0.9271,-0.9247,-0.9232,-0.9202,-0.9118,-0.9164,-0.9156,-0.9143,-0.9042,-0.9022,-0.9014,-0.8969,-0.8964,-0.8961,-0.8958,-0.8957,-0.893,-0.8932,0,0,0,0,0,0,-0.9428,-0.9406,-0.9292,-0.9284,-0.9334,-0.9245,-0.9229,-0.9207,-0.9118,-0.9103,-0.9145,-0.9139,-0.9029,-0.9019,-0.9009,-0.9014,-0.896,-0.8956,-0.8954,-0.8929,-0.893,-0.8932,0,0,0,0,0,0,-0.9432,-0.9419,-0.9297,-0.9343,-0.9326,-0.9244,-0.922,-0.9205,-0.9184,-0.9103,-0.9088,-0.9139,-0.9027,-0.9014,-0.899,-0.9008,-0.8955,-0.8951,-0.8927,-0.8929,-0.8931,-0.9022,0,0,0,0,0,0,-0.9437,-0.9421,-0.9423,-0.9344,-0.9323,-0.9281,-0.9221,-0.9204,-0.9178,-0.917,-0.9094,-0.908,-0.9025,-0.8997,-0.8987,-0.9002,-0.8949,-0.8925,-0.8928,-0.8931,-0.9017,-0.9027,-0.9036,0,0,0,0,0,-0.9443,-0.9453,-0.9424,-0.941,-0.9324,-0.9282,-0.927,-0.9207,-0.918,-0.9181,-0.913,-0.9082,-0.9007,-0.8995,-0.8983,-0.8997,-0.8924,-0.8927,-0.893,-0.9013,-0.9025,-0.9035,0,0,0,0,0,0,-0.9536,-0.9441,-0.9408,-0.9392,-0.9346,-0.9265,-0.9265,-0.9222,-0.9182,-0.9175,-0.9099,-0.9082,-0.9067,-0.9029,-0.9017,-0.9001,-0.8959,-0.8961,-0.9026,-0.9037,-0.9046,-0.9056,-0.8946,0,0,0,0,0,-0.9555,-0.9528,-0.9447,-0.9441,-0.942,-0.9347,-0.9326,-0.9281,-0.923,-0.921,-0.9156,-0.9109,-0.9074,-0.9053,-0.9017,-0.9011,-0.8994,-0.9015,-0.9024,-0.9032,-0.9034,-0.903,-0.9039,-0.8943,-0.8943,-0.8943,0,0,-0.9593,-0.9538,-0.9526,-0.9459,-0.9417,-0.9392,-0.9331,-0.9306,-0.9287,-0.9206,-0.9181,-0.914,-0.9081,-0.9067,-0.9058,-0.9035,-0.9057,-0.9036,-0.9043,-0.9041,-0.9035,-0.9044,-0.9052,-0.8945,-0.8945,-0.8945,0,0,-0.9651,-0.9606,-0.9597,-0.9558,-0.9496,-0.9448,-0.9446,-0.9372,-0.9342,-0.9315,-0.9254,-0.9231,-0.9173,-0.9134,-0.9107,-0.9152,-0.9108,-0.9143,-0.9191,-0.9188,-0.9196,-0.9202,-0.922,-0.9227,-0.9145,-0.9145,-0.9145,0,-0.9706,-0.9666,-0.9598,-0.9578,-0.9551,-0.9477,-0.9468,-0.9433,-0.9363,-0.9346,-0.9322,-0.9249,-0.9204,-0.9181,-0.9192,-0.9172,-0.9169,-0.9151,-0.92,-0.9206,-0.9211,-0.9227,-0.9234,-0.915,-0.9149,-0.9149,-0.9148,0,-0.9738,-0.9711,-0.9712,-0.9647,-0.962,-0.9606,-0.9537,-0.9517,-0.9475,-0.943,-0.9405,-0.9349,-0.9301,-0.9292,-0.925,-0.9263,-0.9251,-0.9214,-0.9172,-0.9226,-0.924,-0.9246,-0.9157,-0.9155,-0.9154,-0.9152,0,0,-0.9851,-0.975,-0.9751,-0.9722,-0.965,-0.9628,-0.9611,-0.9564,-0.955,-0.9504,-0.9489,-0.9443,-0.9409,-0.9379,-0.9332,-0.9329,-0.9371,-0.9293,-0.929,-0.9311,-0.9384,-0.9414,-0.9422,-0.9341,-0.9342,-0.9342,-0.939,0,-0.9898,-0.9864,-0.9803,-0.9788,-0.9764,-0.9694,-0.9679,-0.9633,-0.9591,-0.9564,-0.9516,-0.9486,-0.9442,-0.9424,-0.9418,-0.9368,-0.9385,-0.9363,-0.9327,-0.9327,-0.9346,-0.9429,-0.9459,-0.9506,-0.9395,-0.9395,-0.9396,0,-0.9949,-0.9909,-0.9892,-0.9823,-0.981,-0.9798,-0.9752,-0.9727,-0.9674,-0.9643,-0.961,-0.956,-0.9539,-0.95,-0.9471,-0.9458,-0.9439,-0.9413,-0.9413,-0.9408,-0.9366,-0.9428,-0.9519,-0.9528,-0.9404,-0.9403,-0.9402,0,-1.0035,-0.9976,-0.9959,-0.9936,-0.9854,-0.9848,-0.9814,-0.976,-0.9736,-0.9696,-0.968,-0.9638,-0.9615,-0.9584,-0.9524,-0.95,-0.9503,-0.9457,-0.9478,-0.948,-0.9482,-0.9483,-0.9574,-0.9468,-0.9468,-0.9468,-0.9468,0,-1.0095,-1.0088,-0.9997,-0.9987,-0.9977,-0.9908,-0.9901,-0.986,-0.9813,-0.9794,-0.973,-0.9714,-0.9635,-0.961,-0.9562,-0.9547,-0.9537,-0.9512,-0.95,-0.9519,-0.9522,-0.9507,-0.9502,-0.947,-0.9469,-0.9469,-0.9469,0,-1.019,-1.0129,-1.0106,-1.0031,-1.0012,-1.0009,-0.9945,-0.9933,-0.9887,-0.9864,-0.9854,-0.9782,-0.975,-0.9686,-0.9636,-0.9604,-0.96,-0.9577,-0.9618,-0.9611,-0.9635,-0.9635,-0.9721,-0.9729,-0.9617,-0.9618,-0.9619,0,-1.0233,-1.0227,-1.0152,-1.0135,-1.0103,-1.0076,-1.0053,-0.9984,-0.9962,-0.9903,-0.9898,-0.9861,-0.9827,-0.9778,-0.9722,-0.9683,-0.966,-0.9693,-0.9654,-0.9674,-0.9663,-0.9665,-0.9665,-0.9702,-0.9704,-0.9705,-0.9706,0,-1.0317,-1.0288,-1.0256,-1.0214,-1.0188,-1.0152,-1.0112,-1.0102,-1.0025,-1.0003,-0.9969,-0.9944,-0.9893,-0.9857,-0.981,-0.9775,-0.9729,-0.9719,-0.9722,-0.9742,-0.9766,-0.9755,-0.9644,-0.9717,-0.9716,-0.9716,-0.9715,-0.9714,-1.0389,-1.038,-1.0327,-1.0294,-1.0257,-1.0222,-1.0208,-1.016,-1.0131,-1.0085,-1.0046,-1.0016,-0.9965,-0.9898,-0.9866,-0.9842,-0.9819,-0.9823,-0.9824,-0.9827,-0.9835,-0.9769,-0.9833,-0.9832,-0.9832,-0.9831,-0.9831,0,-1.0471,-1.0433,-1.0404,-1.0351,-1.0326,-1.0284,-1.0239,-1.0221,-1.0195,-1.0151,-1.012,-1.0082,-1.0047,-0.9989,-0.9949,-0.9942,-0.9919,-0.9934,-0.9934,-0.9927,-0.9857,-0.9859,-0.9952,-0.9952,-0.9952,-0.9952,-0.9952,-0.9952,-1.0511,-1.0495,-1.0459,-1.0425,-1.0387,-1.0357,-1.0335,-1.0303,-1.0268,-1.0229,-1.02,-1.0162,-1.0113,-1.0069,-1.0036,-1.002,-1.0009,-1.0031,-1.0008,-0.9943,-0.9932,-0.9921,-0.9923,-1.0029,-1.0029,-1.0081,-1.0081,-1.0082]},{"header":{"parameterUnit":"m.s-1","parameterCategory":1,"la1":30.2991,"la2":30.254,"lo1":-89.0895,"lo2":-89.0444,"dy":0.0017,"dx":0.0017,"nx":28,"ny":28,"refTime":"2024-09-30T03:00:00:Z","depth":0,"parameterNumber":3,"parameterNumberName":"V-component_of_WINDS"},"data":[0,0,0,0,0,0,0,0,0,0,0,0,0,0,0,0,0,0,0,0,0,0,0,0,0,0,0,0,0,0,0,0,0,0,0,0,0,0,0,0,0,0,0,0,0,0,0,0,0,0,0,0,0,0,0,0,0,0,2.0442,2.0441,0,2.0397,2.0396,2.0396,2.0375,2.0375,2.0375,2.0375,2.0325,2.0324,2.0323,0,0,0,0,0,0,0,0,0,0,0,0,0,2.0507,2.0506,2.0442,2.0441,2.0441,2.0397,2.0396,2.0395,2.0375,2.0375,2.0375,2.0375,2.0326,2.0324,2.0322,0,0,0,0,0,0,0,0,0,0,0,0,0,2.0472,2.0505,2.0442,2.0425,2.0423,2.0397,2.0396,2.0395,2.0375,2.0375,2.0375,2.0375,2.0326,2.0324,2.0322,2.0308,0,0,2.0316,2.0315,0,0,0,0,0,0,0,0,2.0474,2.0469,2.0428,2.0426,2.0424,2.0391,2.0401,2.0366,2.0375,2.0393,2.0375,2.0375,2.0347,2.0343,2.0334,2.0306,2.0304,2.0316,2.0315,2.0314,2.0313,0,0,0,0,0,0,0,2.0476,2.0471,2.0424,2.0428,2.0425,2.0419,2.0414,2.0394,2.037,2.0391,2.039,2.0385,2.0346,2.0337,2.0333,2.0303,2.0316,2.0314,2.0313,2.0312,2.0259,2.0259,0,0,0,0,0,0,2.0482,2.0473,2.0425,2.0423,2.045,2.0417,2.0412,2.0402,2.037,2.0366,2.0385,2.0384,2.034,2.0336,2.0331,2.0312,2.0314,2.0312,2.0311,2.0259,2.0259,2.0258,0,0,0,0,0,0,2.0483,2.0478,2.0427,2.0447,2.0441,2.0416,2.0405,2.0401,2.0392,2.0365,2.0361,2.038,2.034,2.0334,2.0314,2.031,2.0311,2.0309,2.0259,2.0259,2.0259,2.0273,0,0,0,0,0,0,2.0485,2.0478,2.0474,2.0448,2.044,2.0412,2.0405,2.04,2.0388,2.0387,2.036,2.0355,2.0339,2.0317,2.0312,2.0307,2.0307,2.0259,2.0259,2.0259,2.0273,2.0274,2.0274,0,0,0,0,0,2.0488,2.048,2.0474,2.0468,2.0434,2.0412,2.0407,2.039,2.0388,2.0383,2.0366,2.0356,2.0311,2.0315,2.0309,2.0304,2.026,2.0259,2.0259,2.0273,2.0273,2.0274,0,0,0,0,0,0,2.0505,2.0476,2.0469,2.0453,2.0435,2.0408,2.0401,2.0392,2.0373,2.0373,2.0352,2.0345,2.0327,2.0313,2.0318,2.0287,2.0284,2.0283,2.0297,2.0297,2.0298,2.0301,2.0306,0,0,0,0,0,2.0507,2.0493,2.0468,2.0456,2.0447,2.0426,2.0415,2.0404,2.0384,2.0377,2.0358,2.0338,2.032,2.0308,2.0289,2.0271,2.0264,2.0264,2.0264,2.0265,2.0264,2.0251,2.025,2.0257,2.0257,2.0257,0,0,2.0511,2.0494,2.0486,2.0459,2.0444,2.0428,2.0419,2.0404,2.0391,2.0374,2.0354,2.0339,2.0316,2.0296,2.0286,2.0284,2.026,2.0264,2.0265,2.0263,2.0251,2.025,2.0249,2.0257,2.0257,2.0257,0,0,2.0511,2.0496,2.0484,2.0469,2.0446,2.0432,2.0429,2.0403,2.0393,2.0373,2.0359,2.0343,2.0312,2.0296,2.0283,2.0275,2.0264,2.0269,2.0271,2.0259,2.0259,2.0258,2.0254,2.0253,2.0268,2.0268,2.0268,0,2.0518,2.0495,2.0478,2.0463,2.0451,2.0435,2.0421,2.0407,2.0379,2.0371,2.0369,2.0328,2.0311,2.0287,2.0285,2.0276,2.027,2.0272,2.0261,2.026,2.0259,2.0254,2.0253,2.0269,2.0268,2.0268,2.0268,0,2.0505,2.0489,2.0482,2.0456,2.0443,2.0428,2.0408,2.0396,2.0386,2.0371,2.0349,2.0328,2.0305,2.0298,2.0287,2.0271,2.0271,2.0265,2.0261,2.0259,2.0255,2.0253,2.027,2.0269,2.0269,2.0269,0,0,2.0515,2.0479,2.0476,2.0464,2.0437,2.0424,2.0408,2.0386,2.0376,2.0357,2.0342,2.0315,2.0309,2.0295,2.0282,2.0272,2.0265,2.0267,2.0266,2.0266,2.0244,2.0248,2.0247,2.0258,2.0258,2.0257,2.0246,0,2.0509,2.0481,2.0465,2.0443,2.0427,2.0411,2.0397,2.0378,2.0364,2.0347,2.0331,2.0312,2.0306,2.0297,2.0286,2.0268,2.026,2.0269,2.0242,2.0242,2.0248,2.0244,2.0249,2.0239,2.0244,2.0244,2.0243,0,2.05,2.0482,2.0458,2.0432,2.0425,2.0413,2.039,2.0375,2.0353,2.0343,2.0326,2.0313,2.0294,2.0292,2.0265,2.0271,2.0259,2.0248,2.0247,2.0244,2.0242,2.024,2.0235,2.0234,2.0241,2.0241,2.0241,0,2.0508,2.0477,2.0459,2.0449,2.0419,2.041,2.0397,2.0375,2.0362,2.0341,2.0332,2.031,2.0297,2.028,2.026,2.0261,2.0234,2.0231,2.0223,2.0224,2.0218,2.0219,2.0211,2.0212,2.0212,2.0212,2.0212,0,2.0504,2.049,2.0462,2.0451,2.0434,2.0415,2.0398,2.0384,2.0364,2.0348,2.0333,2.0318,2.0294,2.0275,2.026,2.0238,2.0233,2.0223,2.0219,2.0224,2.0225,2.0216,2.0215,2.0212,2.0212,2.0212,2.0212,0,2.051,2.0491,2.047,2.0443,2.0435,2.0424,2.04,2.0387,2.0372,2.0352,2.0346,2.0321,2.0299,2.0278,2.0248,2.0237,2.0215,2.021,2.0223,2.0221,2.0214,2.0215,2.02,2.0196,2.02,2.02,2.02,0,2.0508,2.0497,2.0468,2.0457,2.0444,2.0426,2.0413,2.0393,2.0379,2.0352,2.0343,2.0319,2.03,2.0264,2.0243,2.0219,2.0213,2.0209,2.0209,2.0214,2.0211,2.0212,2.021,2.0209,2.021,2.021,2.021,0,2.0506,2.0497,2.0479,2.0458,2.0442,2.0424,2.0405,2.0397,2.0372,2.0358,2.0335,2.032,2.0289,2.0266,2.0239,2.0224,2.0212,2.021,2.0207,2.0211,2.0219,2.0214,2.0223,2.021,2.021,2.021,2.021,2.021,2.0508,2.0496,2.0474,2.0454,2.0438,2.042,2.0407,2.039,2.0371,2.0345,2.0334,2.031,2.0286,2.025,2.0235,2.0215,2.0212,2.0208,2.0207,2.0206,2.0206,2.0223,2.021,2.021,2.021,2.021,2.021,0,2.0504,2.0489,2.0471,2.0445,2.0429,2.042,2.0398,2.0385,2.0365,2.0344,2.0325,2.0298,2.0274,2.0251,2.0226,2.0214,2.0208,2.0208,2.0208,2.0205,2.0211,2.0216,2.0214,2.0214,2.0214,2.0214,2.0214,2.0214,2.05,2.0481,2.0469,2.044,2.0424,2.0402,2.039,2.0373,2.0356,2.0327,2.0308,2.0293,2.027,2.0243,2.0221,2.0214,2.0205,2.0207,2.0199,2.0205,2.0205,2.0204,2.0209,2.0205,2.0205,2.0194,2.0194,2.0194]}]]